Satellite: MET-3/5
Catalog number: 21655
Epoch time:      10272.86529344
Element set:    0927
Inclination:      082.5560 deg
RA of node:       234.6654 deg
Eccentricity:    0.0014962
Arg of perigee:   087.0120 deg
Mean anomaly:     273.2769 deg
Mean motion:   13.17025200 rev/day
Decay rate:        5.1e-07 rev/day^2
Epoch rev:           91945
Checksum:              296

Satellite: MET-2/21
Catalog number: 22782
Epoch time:      10272.78458619
Element set:    0898
Inclination:      082.5490 deg
RA of node:       169.4703 deg
Eccentricity:    0.0023764
Arg of perigee:   107.9479 deg
Mean anomaly:     252.4283 deg
Mean motion:   13.83649994 rev/day
Decay rate:        3.8e-07 rev/day^2
Epoch rev:           86254
Checksum:              357

Satellite: OKEAN-4
Catalog number: 23317
Epoch time:      10273.31986262
Element set:     353
Inclination:      082.5380 deg
RA of node:       255.7213 deg
Eccentricity:    0.0020314
Arg of perigee:   254.7325 deg
Mean anomaly:     105.1652 deg
Mean motion:   14.82866256 rev/day
Decay rate:       1.90e-06 rev/day^2
Epoch rev:           86203
Checksum:              277

Satellite: NOAA-14
Catalog number: 23455
Epoch time:      10273.37885359
Element set:     214
Inclination:      098.8726 deg
RA of node:       353.3572 deg
Eccentricity:    0.0008729
Arg of perigee:   301.1200 deg
Mean anomaly:     058.9112 deg
Mean motion:   14.13795670 rev/day
Decay rate:        4.1e-07 rev/day^2
Epoch rev:           81236
Checksum:              298

Satellite: NOAA-15
Catalog number: 25338
Epoch time:      10273.41801430
Element set:     541
Inclination:      098.6306 deg
RA of node:       258.5128 deg
Eccentricity:    0.0011460
Arg of perigee:   125.4990 deg
Mean anomaly:     234.7274 deg
Mean motion:   14.24858002 rev/day
Decay rate:       2.20e-06 rev/day^2
Epoch rev:           64373
Checksum:              276

Satellite: RESURS
Catalog number: 25394
Epoch time:      10273.37864341
Element set:     615
Inclination:      098.3036 deg
RA of node:       285.7265 deg
Eccentricity:    0.0000687
Arg of perigee:   314.4918 deg
Mean anomaly:     045.6206 deg
Mean motion:   14.24210956 rev/day
Decay rate:        2.5e-07 rev/day^2
Epoch rev:           63532
Checksum:              292

Satellite: FENGYUN1
Catalog number: 25730
Epoch time:      10272.82045300
Element set:     147
Inclination:      098.7938 deg
RA of node:       235.0863 deg
Eccentricity:    0.0022183
Arg of perigee:   333.0185 deg
Mean anomaly:     026.9870 deg
Mean motion:   14.08302322 rev/day
Decay rate:       6.39e-06 rev/day^2
Epoch rev:           58641
Checksum:              282

Satellite: OKEAN-0
Catalog number: 25860
Epoch time:      10273.52489308
Element set:     112
Inclination:      097.8460 deg
RA of node:       242.7188 deg
Eccentricity:    0.0001870
Arg of perigee:   085.4524 deg
Mean anomaly:     274.6892 deg
Mean motion:   14.73666414 rev/day
Decay rate:       1.10e-06 rev/day^2
Epoch rev:           60241
Checksum:              292

Satellite: NOAA-16
Catalog number: 26536
Epoch time:      10273.41185627
Element set:      17
Inclination:      099.1669 deg
RA of node:       293.3467 deg
Eccentricity:    0.0011040
Arg of perigee:   045.7405 deg
Mean anomaly:     314.4693 deg
Mean motion:   14.12577292 rev/day
Decay rate:       -1.5e-07 rev/day^2
Epoch rev:           51668
Checksum:              303

Satellite: NOAA-17
Catalog number: 27453
Epoch time:      10273.38003499
Element set:      10
Inclination:      098.4187 deg
RA of node:       319.5277 deg
Eccentricity:    0.0011624
Arg of perigee:   185.5345 deg
Mean anomaly:     174.5713 deg
Mean motion:   14.24195007 rev/day
Decay rate:       2.33e-06 rev/day^2
Epoch rev:           42967
Checksum:              302

Satellite: NOAA-18
Catalog number: 28654
Epoch time:      10273.43324569
Element set:     498
Inclination:      098.9606 deg
RA of node:       219.4394 deg
Eccentricity:    0.0015167
Arg of perigee:   114.9746 deg
Mean anomaly:     245.3010 deg
Mean motion:   14.11391214 rev/day
Decay rate:      -1.17e-06 rev/day^2
Epoch rev:           27628
Checksum:              313

Satellite: NOAA-19
Catalog number: 33591
Epoch time:      10273.44419876
Element set:     694
Inclination:      098.7955 deg
RA of node:       213.3617 deg
Eccentricity:    0.0014251
Arg of perigee:   355.1155 deg
Mean anomaly:     004.9869 deg
Mean motion:   14.11089156 rev/day
Decay rate:       1.28e-06 rev/day^2
Epoch rev:            8475
Checksum:              327

/EX
SB KEPS @ AMSAT  $ORB10273.M
Orbital Elements  10273.MISC

HR AMSAT ORBITAL ELEMENTS FOR MANNED AND MISCELLANEOUS SATELLITES
FROM WA5QGD FORT WORTH,TX September 30, 2010
BID: ORB10273.M
TO ALL RADIO AMATEURS BT

Satellite: HUBBLE
Catalog number: 20580
Epoch time:      10272.23879036
Element set:     652
Inclination:      028.4704 deg
RA of node:       280.5493 deg
Eccentricity:    0.0003568
Arg of perigee:   222.9977 deg
Mean anomaly:     137.0272 deg
Mean motion:   15.01047691 rev/day
Decay rate:       6.45e-06 rev/day^2
Epoch rev:           92040
Checksum:              289

Satellite: ISS
Catalog number: 25544
Epoch time:      10274.00438780
Element set:     986
Inclination:      051.6461 deg
RA of node:       049.2272 deg
Eccentricity:    0.0007187
Arg of perigee:   051.0041 deg
Mean anomaly:     054.0995 deg
Mean motion:   15.71552096 rev/day
Decay rate:     1.6846e-04 rev/day^2
Epoch rev:           68011
Checksum:              291

